Location: Calvera
(42.3882°N, 0.6137°E)
Time: 14:48:25
(UTC+00:00)

Meteor 1-24 Rocket - Pass Details

Date: 28 October 2020
Orbit: 791 x 926 km, 81.3° (Epoch: 24 November)

Event Time Altitude Azimuth Distance (km) Brightness Sun altitude
Rises 05:30:01 0° 213° (SSW) 3,378 6.6 -11.0°
Reaches altitude 10° 05:32:35 10° 223° (SW) 2,469 5.8 -10.5°
Maximum altitude 05:37:42 35° 288° (WNW) 1,367 4.3 -9.6°
Drops below altitude 10° 05:43:01 10° 354° (N) 2,568 6.1 -8.6°
Sets 05:45:45 0° 3° (N) 3,532 6.9 -8.1°
